Location: Amon Carter Post Office
(32.8281°N, 97.0484°W)
Time: 09:58:31
(UTC+00:00)

SL-4 R/B - Pass Details

Date: 12 July 2022
Orbit: 425 x 653 km, 51.6° (Epoch: 07 August)

Event Time Altitude Azimuth Distance (km) Brightness Sun altitude
Rises 03:41:22 0° 262° (W) 2,375 5.8 -21.5°
Reaches altitude 10° 03:43:57 10° 282° (WNW) 1,510 5.0 -21.8°
Maximum altitude 03:46:19 18° 327° (NNW) 1,139 4.5 -22.2°
Drops below altitude 10° 03:48:42 10° 12° (NNE) 1,532 4.7 -22.5°
Sets 03:51:21 0° 32° (NNE) 2,427 5.5 -22.9°
